LAN841 SCEL-SCIP

Flight info

Callsign LAN841
Flight time N/A
Altitude 38000
Route DGO1R DGO UL348 KEXEM/N0482F400 UL348 ASALA ASALA2A
Aircraft A359/H-SDE2E3GHIJ3J4J5LM1ORWXY/LB1D1

Departure

Time N/A
Airport Comodoro Arturo Merino Benítez International Airport (SCEL)

Arrival

Time 2026-04-14 18:50
Airport Mataveri International Airport (SCIP)
Time Latitude Longitude Altitude Speed Heading
2026-04-14 17:55 -29.16273 -103.36403 38188 ft 492 kts 284°
2026-04-14 17:55 -29.14799 -103.41797 38196 ft 492 kts 284°
2026-04-14 17:56 -29.12753 -103.49275 38195 ft 493 kts 284°
2026-04-14 17:56 -29.10708 -103.56726 38193 ft 494 kts 284°
2026-04-14 17:57 -29.08641 -103.64235 38197 ft 495 kts 284°
2026-04-14 17:57 -29.06566 -103.71751 38196 ft 495 kts 284°
2026-04-14 17:58 -29.04492 -103.79256 38200 ft 495 kts 284°
2026-04-14 17:58 -29.02424 -103.86719 38188 ft 495 kts 285°
2026-04-14 17:59 -29.00338 -103.94228 38196 ft 496 kts 285°
2026-04-14 17:59 -28.98247 -104.01736 38199 ft 496 kts 285°
2026-04-14 18:00 -28.96149 -104.09247 38199 ft 496 kts 285°
2026-04-14 18:00 -28.92988 -104.20510 38203 ft 496 kts 285°
2026-04-14 18:01 -28.90881 -104.28008 38203 ft 497 kts 285°
2026-04-14 18:01 -28.88766 -104.35519 38203 ft 497 kts 285°
2026-04-14 18:02 -28.86648 -104.43021 38203 ft 497 kts 285°
2026-04-14 18:02 -28.84534 -104.50487 38206 ft 497 kts 285°
2026-04-14 18:03 -28.82403 -104.57996 38206 ft 497 kts 285°
2026-04-14 18:03 -28.80272 -104.65489 38209 ft 497 kts 285°
2026-04-14 18:04 -28.78134 -104.72987 38208 ft 497 kts 285°
2026-04-14 18:04 -28.75993 -104.80484 38208 ft 497 kts 285°
2026-04-14 18:05 -28.73850 -104.87972 38209 ft 497 kts 285°
2026-04-14 18:05 -28.71701 -104.95463 38205 ft 497 kts 286°
2026-04-14 18:06 -28.69551 -105.02941 38208 ft 496 kts 286°
2026-04-14 18:06 -28.67414 -105.10357 38205 ft 496 kts 286°
2026-04-14 18:07 -28.65254 -105.17828 38209 ft 496 kts 287°
2026-04-14 18:07 -28.63089 -105.25297 38214 ft 496 kts 287°
2026-04-14 18:08 -28.60924 -105.32753 38204 ft 496 kts 287°
2026-04-14 18:08 -28.58756 -105.40204 38204 ft 496 kts 287°
2026-04-14 18:09 -28.56587 -105.47645 38209 ft 495 kts 287°
2026-04-14 18:09 -28.54410 -105.55093 38206 ft 495 kts 287°
2026-04-14 18:10 -28.52232 -105.62530 38214 ft 496 kts 287°
2026-04-14 18:10 -28.50064 -105.69917 38215 ft 496 kts 287°
2026-04-14 18:11 -28.47874 -105.77360 38217 ft 496 kts 287°
2026-04-14 18:11 -28.45683 -105.84791 38214 ft 496 kts 287°
2026-04-14 18:12 -28.43858 -105.90969 38208 ft 496 kts 287°
2026-04-14 18:12 -28.41669 -105.98416 38209 ft 496 kts 287°
2026-04-14 18:13 -28.39500 -106.05856 38218 ft 496 kts 287°
2026-04-14 18:13 -28.37327 -106.13299 38217 ft 497 kts 287°
2026-04-14 18:14 -28.35143 -106.20750 38214 ft 497 kts 287°
2026-04-14 18:14 -28.32958 -106.28187 38209 ft 497 kts 287°
2026-04-14 18:15 -28.30771 -106.35626 38210 ft 497 kts 288°
2026-04-14 18:15 -28.28572 -106.43083 38219 ft 497 kts 288°
2026-04-14 18:16 -28.26387 -106.50472 38218 ft 497 kts 288°
2026-04-14 18:16 -28.24213 -106.57800 38223 ft 483 kts 288°
2026-04-14 18:17 -28.22081 -106.64983 38218 ft 479 kts 288°
2026-04-14 18:17 -28.19950 -106.72153 38216 ft 480 kts 288°
2026-04-14 18:18 -28.17803 -106.79352 38220 ft 483 kts 289°
2026-04-14 18:18 -28.15644 -106.86566 38221 ft 483 kts 289°
2026-04-14 18:19 -28.13486 -106.93767 38218 ft 483 kts 289°
2026-04-14 18:19 -28.11324 -107.00968 38219 ft 483 kts 289°
2026-04-14 18:20 -28.09171 -107.08130 38217 ft 483 kts 289°
2026-04-14 18:20 -28.06992 -107.15354 38219 ft 485 kts 289°
2026-04-14 18:21 -28.04809 -107.22578 38219 ft 485 kts 289°
2026-04-14 18:21 -28.02621 -107.29801 38219 ft 485 kts 289°
2026-04-14 18:22 -28.00428 -107.37020 38221 ft 485 kts 289°
2026-04-14 18:22 -27.98271 -107.44243 38222 ft 485 kts 289°
2026-04-14 18:23 -27.96088 -107.51468 37949 ft 476 kts 289°
2026-04-14 18:23 -27.95025 -107.54972 37015 ft 467 kts 289°
2026-04-14 18:23 -27.93967 -107.58447 35596 ft 470 kts 289°
2026-04-14 18:24 -27.92895 -107.61953 34181 ft 473 kts 289°
2026-04-14 18:24 -27.91814 -107.65476 32952 ft 474 kts 290°
2026-04-14 18:24 -27.90737 -107.68976 32546 ft 467 kts 290°
2026-04-14 18:24 -27.89673 -107.72425 32120 ft 461 kts 290°
2026-04-14 18:25 -27.88637 -107.75786 31663 ft 456 kts 290°
2026-04-14 18:25 -27.87598 -107.79157 31206 ft 452 kts 290°
2026-04-14 18:25 -27.86566 -107.82503 30751 ft 447 kts 290°
2026-04-14 18:25 -27.85548 -107.85805 30297 ft 443 kts 290°
2026-04-14 18:26 -27.84534 -107.89085 29811 ft 439 kts 290°
2026-04-14 18:26 -27.83535 -107.92315 29355 ft 433 kts 290°
2026-04-14 18:26 -27.82547 -107.95507 28916 ft 428 kts 290°
2026-04-14 18:26 -27.81566 -107.98672 28477 ft 423 kts 290°
2026-04-14 18:27 -27.80602 -108.01785 28049 ft 418 kts 290°
2026-04-14 18:27 -27.79660 -108.04823 27636 ft 413 kts 290°
2026-04-14 18:27 -27.78716 -108.07867 27214 ft 409 kts 290°
2026-04-14 18:27 -27.77780 -108.10880 26792 ft 404 kts 290°
2026-04-14 18:28 -27.76854 -108.13861 26379 ft 400 kts 290°
2026-04-14 18:28 -27.75933 -108.16817 25971 ft 396 kts 289°
2026-04-14 18:28 -27.75023 -108.19739 25551 ft 393 kts 289°
2026-04-14 18:28 -27.74119 -108.22638 25142 ft 391 kts 289°
2026-04-14 18:29 -27.73217 -108.25528 24735 ft 389 kts 289°
2026-04-14 18:29 -27.72321 -108.28396 24311 ft 387 kts 289°
2026-04-14 18:29 -27.71429 -108.31247 23900 ft 384 kts 289°
2026-04-14 18:29 -27.70544 -108.34078 23439 ft 382 kts 289°
2026-04-14 18:30 -27.69660 -108.36901 23023 ft 380 kts 289°
2026-04-14 18:30 -27.68781 -108.39705 22601 ft 377 kts 289°
2026-04-14 18:30 -27.67909 -108.42485 22194 ft 375 kts 289°
2026-04-14 18:30 -27.67037 -108.45248 21786 ft 372 kts 290°
2026-04-14 18:31 -27.66098 -108.47955 21390 ft 370 kts 292°
2026-04-14 18:31 -27.65132 -108.50638 20985 ft 367 kts 292°
2026-04-14 18:31 -27.64189 -108.53268 20589 ft 365 kts 291°
2026-04-14 18:31 -27.63246 -108.55916 20187 ft 362 kts 291°
2026-04-14 18:32 -27.62313 -108.58544 19784 ft 360 kts 291°
2026-04-14 18:32 -27.61388 -108.61158 19390 ft 358 kts 291°
2026-04-14 18:32 -27.60469 -108.63755 18995 ft 355 kts 291°
2026-04-14 18:32 -27.59557 -108.66335 18598 ft 353 kts 291°
2026-04-14 18:33 -27.58651 -108.68893 18167 ft 350 kts 291°
2026-04-14 18:33 -27.57751 -108.71435 17762 ft 348 kts 291°
2026-04-14 18:33 -27.56856 -108.73962 17386 ft 346 kts 291°
2026-04-14 18:34 -27.54197 -108.81460 16225 ft 340 kts 292°
2026-04-14 18:34 -27.53319 -108.83934 15845 ft 339 kts 292°
2026-04-14 18:34 -27.52446 -108.86391 15455 ft 337 kts 292°
2026-04-14 18:35 -27.51586 -108.88808 15090 ft 335 kts 292°
2026-04-14 18:35 -27.50722 -108.91236 14712 ft 333 kts 292°
2026-04-14 18:35 -27.49860 -108.93656 14339 ft 332 kts 292°
2026-04-14 18:35 -27.49003 -108.96064 13967 ft 330 kts 292°
2026-04-14 18:36 -27.48148 -108.98460 13561 ft 328 kts 292°
2026-04-14 18:36 -27.47300 -109.00838 13184 ft 326 kts 292°
2026-04-14 18:36 -27.46452 -109.03213 12809 ft 325 kts 292°
2026-04-14 18:36 -27.45623 -109.05536 12434 ft 323 kts 292°
2026-04-14 18:37 -27.44787 -109.07874 12070 ft 321 kts 292°
2026-04-14 18:37 -27.43946 -109.10227 11707 ft 319 kts 292°
2026-04-14 18:37 -27.43129 -109.12512 11360 ft 318 kts 292°
2026-04-14 18:37 -27.42304 -109.14816 10992 ft 316 kts 293°
2026-04-14 18:38 -27.41496 -109.17076 10817 ft 305 kts 293°
2026-04-14 18:38 -27.41230 -109.17818 10776 ft 300 kts 293°
2026-04-14 18:39 -27.38559 -109.25295 10067 ft 280 kts 293°
2026-04-14 18:39 -27.37808 -109.27382 9929 ft 293 kts 293°
2026-04-14 18:39 -27.37041 -109.29504 9688 ft 291 kts 294°
2026-04-14 18:39 -27.36205 -109.31579 9181 ft 292 kts 297°
2026-04-14 18:40 -27.35284 -109.33629 8678 ft 293 kts 298°
2026-04-14 18:40 -27.34360 -109.35654 8322 ft 289 kts 298°
2026-04-14 18:40 -27.33447 -109.37654 8012 ft 286 kts 298°
2026-04-14 18:40 -27.32540 -109.39643 7721 ft 285 kts 298°
2026-04-14 18:41 -27.31638 -109.41625 7433 ft 284 kts 298°
2026-04-14 18:41 -27.30738 -109.43598 7142 ft 283 kts 298°
2026-04-14 18:41 -27.29843 -109.45562 6864 ft 282 kts 298°
2026-04-14 18:41 -27.28950 -109.47520 6582 ft 281 kts 298°
2026-04-14 18:42 -27.28061 -109.49473 6274 ft 280 kts 298°
2026-04-14 18:42 -27.27176 -109.51415 6000 ft 278 kts 298°
2026-04-14 18:42 -27.26299 -109.53340 5763 ft 276 kts 298°
2026-04-14 18:42 -27.25424 -109.55256 5530 ft 275 kts 299°
2026-04-14 18:43 -27.24551 -109.57166 5264 ft 274 kts 299°
2026-04-14 18:43 -27.23681 -109.59071 4967 ft 274 kts 299°
2026-04-14 18:43 -27.22810 -109.60974 4632 ft 273 kts 299°
2026-04-14 18:43 -27.21939 -109.62857 4309 ft 269 kts 300°
2026-04-14 18:44 -27.20800 -109.64492 3993 ft 266 kts 323°
2026-04-14 18:44 -27.19148 -109.65349 3702 ft 263 kts 353°
2026-04-14 18:44 -27.17350 -109.65172 3422 ft 261 kts 22°
2026-04-14 18:44 -27.15796 -109.64220 3226 ft 254 kts 34°
2026-04-14 18:45 -27.14343 -109.63180 3131 ft 240 kts 34°
2026-04-14 18:45 -27.12972 -109.62214 3030 ft 226 kts 34°
2026-04-14 18:45 -27.11672 -109.61314 2964 ft 213 kts 34°
2026-04-14 18:45 -27.10462 -109.60474 2886 ft 197 kts 35°
2026-04-14 18:46 -27.09647 -109.59357 2753 ft 181 kts 77°
2026-04-14 18:46 -27.09660 -109.58021 2628 ft 167 kts 102°
2026-04-14 18:46 -27.09905 -109.56770 2400 ft 162 kts 104°
2026-04-14 18:46 -27.10366 -109.55664 2215 ft 152 kts 125°
2026-04-14 18:47 -27.10857 -109.54633 1984 ft 148 kts 115°
2026-04-14 18:47 -27.11247 -109.53586 1792 ft 142 kts 115°
2026-04-14 18:47 -27.11663 -109.52588 1644 ft 141 kts 118°
2026-04-14 18:47 -27.12111 -109.51613 1471 ft 140 kts 118°
2026-04-14 18:48 -27.12555 -109.50636 1327 ft 140 kts 116°
2026-04-14 18:48 -27.13009 -109.49670 1168 ft 139 kts 120°
2026-04-14 18:48 -27.13464 -109.48713 1019 ft 139 kts 119°
2026-04-14 18:48 -27.13916 -109.47749 856 ft 140 kts 120°
2026-04-14 18:49 -27.14369 -109.46793 698 ft 141 kts 121°
2026-04-14 18:49 -27.14830 -109.45816 544 ft 142 kts 121°
2026-04-14 18:49 -27.15276 -109.44827 398 ft 141 kts 116°
2026-04-14 18:49 -27.15717 -109.43825 310 ft 145 kts 118°
2026-04-14 18:50 -27.16171 -109.42845 273 ft 129 kts 117°
2026-04-14 18:50 -27.16533 -109.42062 274 ft 98 kts 117°
2026-04-14 18:50 -27.16795 -109.41492 273 ft 66 kts 118°
2026-04-14 18:50 -27.16916 -109.41188 272 ft 28 kts 95°
2026-04-14 18:51 -27.16962 -109.41129 272 ft 8 kts 253°
2026-04-14 18:51 -27.16930 -109.41219 275 ft 23 kts 298°
2026-04-14 18:51 -27.16815 -109.41462 276 ft 46 kts 297°
2026-04-14 18:51 -27.16647 -109.41826 274 ft 54 kts 298°
2026-04-14 18:52 -27.16480 -109.42189 273 ft 52 kts 297°
2026-04-14 18:52 -27.16319 -109.42541 272 ft 50 kts 297°
2026-04-14 18:52 -27.16176 -109.42846 273 ft 17 kts 299°
2026-04-14 18:52 -27.16118 -109.42872 273 ft 9 kts
2026-04-14 18:53 -27.16054 -109.42844 272 ft 1 kts 22°
2026-04-14 18:53 -27.16031 -109.42842 272 ft 10 kts 349°
2026-04-14 18:53 -27.16008 -109.42863 271 ft 1 kts 312°
2026-04-14 18:53 -27.15998 -109.42878 271 ft 3 kts 306°
2026-04-14 18:54 -27.15996 -109.42880 271 ft 0 kts 306°